Regional Weather Roundup
Issued by NWS Sterling, VA

Home | Current Version | Previous Version | Graphics & Text | Print | Product List | Glossary On
Versions: 1 2 3 4 5 6 7 8 9 10 11 12 13 14 15 16 17 18 19 20 21 22 23 24 25 26 27 28 29 30 31 32 33 34 35 36 37 38 39 40 41 42 43 44 45 46 47 48 49 50
000
ASUS41 KLWX 230310
RWRLWX

REGIONAL WEATHER ROUNDUP
NATIONAL WEATHER SERVICE BALTIMORE MD/WASHINGTON DC
1100 PM EDT FRI MAY 22 2015

Note: "FAIR" indicates few or no clouds below 12,000 feet
with no significant weather and/or obstructions to visibility.
 TC=TEMPERATURE CELSIUS

 * =Non NWS site. Station does not report precipitation (e.g. rain,
    snow, etc.), thunder, or fog.

DCZ001-MDZ009-015-VAZ040>042-051-053>054-230400-
WASHINGTON METRO

CITY           SKY/WX    TMP DP  RH WIND       PRES   REMARKS
WASHINGTON NAT PTCLDY    69  43  38 W9        30.21R
DULLES         PTCLDY    62  44  51 W10       30.22R
ANDREWS AFB    CLEAR     66  43  43 W8        30.20R
FT BELVOIR     CLEAR     59  47  65 NW2       30.22R
QUANTICO       CLEAR     60  51  72 W9        30.22R
COLLEGE PARK*  CLEAR     66  43  42 W5        30.21R
LEESBURG*      CLEAR     64  48  55 W7        30.24R
MANASSAS*      MOCLDY    63  46  55 NW7       30.23
GAITHERSBURG*  CLEAR     59  43  55 NW8       30.26R

$$

MDZ006>007-011-014-230400-
BALTIMORE METRO

CITY           SKY/WX    TMP DP  RH WIND       PRES   REMARKS
BWI AIRPORT    PTCLDY    63  43  48 NW7       30.20R
MD SCIENCE CTR   N/A     67  37  33 MISG      30.20R
MARTIN STATE   CLEAR     63  41  45 W12       30.21R
ANNAPOLIS      CLEAR     67  43  41 W7        30.19R
FORT MEADE*    CLEAR     55  46  71 W3        30.24R

$$

MDZ012-015-019>023-230400-
MARYLAND EASTERN SHORE

CITY           SKY/WX    TMP DP  RH WIND       PRES   REMARKS
OCEAN CITY     CLEAR     63  51  65 W7        30.18R
SALISBURY      CLEAR     56  50  80 CALM      30.19R
BAY BRIDGE AP*   N/A    N/A N/A N/A NW8       30.20R
CAMBRIDGE*     CLEAR     63  46  55 W5        30.19R
EASTON*        CLEAR     66  49  53 W5        30.22R

$$

MDZ017>025-230400-
SOUTHERN MARYLAND

CITY           SKY/WX    TMP DP  RH WIND       PRES   REMARKS
PATUXENT RIVER PTCLDY    58  49  72 SW8       30.20R
ST INIGOES     CLEAR     65  50  58 W6        30.20R
LEONARDTOWN*   CLEAR     59  46  63 W6        30.22R

$$

MDZ003>005-230400-
NORTH CENTRAL MARYLAND

CITY           SKY/WX    TMP DP  RH WIND       PRES   REMARKS
FREDERICK*     CLEAR     59  34  38 N5        30.26R
HAGERSTOWN APT CLEAR     59  27  29 NW7       30.25R
WESTMINSTER*   PTCLDY    61  21  21 NW9       30.23R

$$

MDZ501>502-230400-
WESTERN MARYLAND

CITY           SKY/WX    TMP DP  RH WIND       PRES   REMARKS
OAKLAND*       CLEAR     45  32  61 N3        30.30R
CUMBERLAND*    CLEAR     59  28  31 N7        30.33R

$$

VAZ025>031-230400-
SHENANDOAH VALLEY

CITY           SKY/WX    TMP DP  RH WIND       PRES   REMARKS
WINCHESTER*    PTCLDY    61  43  51 W10       30.25R
FRONT ROYAL*   FAIR      63  46  55 W9        30.25R
LURAY*         FAIR      61  48  63 CALM      30.24S
NEW MARKET*    MOCLDY    56  48  75 CALM      30.25R
STAUNTON*      PTCLDY    62  40  44 W3        30.28R
WAYNESBORO*    FAIR      60  39  46 W6        30.27R

$$

WVZ021-048>050-054>055-230400-
EASTERN WEST VIRGINIA PANHANDLE

CITY           SKY/WX    TMP DP  RH WIND       PRES   REMARKS
MARTINSBURG    CLEAR     61  33  35 NW12      30.25R
PETERSBURG*    MOCLDY    56  46  69 E3        30.29R

$$

VAZ036>039-050-230400-
CENTRAL FOOTHILLS

CITY           SKY/WX    TMP DP  RH WIND       PRES   REMARKS
CHARLOTTESVILL PTCLDY    61  42  49 CALM      30.24R
CULPEPER*      CLOUDY    55  48  77 NW3       30.24R
ORANGE*        MOCLDY    55  50  82 CALM      30.25R
GORDONSVILLE*  FAIR      54  50  87 CALM      30.23R
WARRENTON*     MOCLDY    61  50  66 NW14      30.23R

$$

VAZ055>057-230400-
NORTH AND CENTRAL PIEDMONT

CITY           SKY/WX    TMP DP  RH WIND       PRES   REMARKS
FREDERICKSBRG* CLEAR     62  53  72 CALM      30.22R
STAFFORD*      CLEAR     52  50  93 NW5       30.26R

$$

NCZ024-NYZ072-PAZ021-071-VAZ022-071-230400-
OTHER REGIONAL OBSERVATIONS

CITY           SKY/WX    TMP DP  RH WIND       PRES   REMARKS
NEW YORK CITY  PTCLDY    63  32  31 VRB3      30.15R
PHILADELPHIA   CLEAR     68  25  19 NW16G23   30.16R
PITTSBURGH     PTCLDY    51  29  42 E3        30.32R
ROANOKE        CLEAR     61  40  45 N6        30.31R
RICHMOND       PTCLDY    59  47  64 SW5       30.23R
RALEIGH        PTCLDY    54  48  80 CALM      30.28R

$$

ANZ530>537-230400-
MARINE OBSERVATIONS

STATION/POSITION TIME  TEMP    WIND        PRES
                       AIR SEA DIR/SP/G
                 (UTC) (F)     (DEG/KT/KT) (MB)
THOMAS PT LIGHT  0300   68 65  280/  8/  9 1023.0R
BALT KEY BRIDGE  0200   68     280/  7/  8 1020.9R
LEWISETTA        0200   67 70              1021.9R
SOLOMONS ISLAND  0200      68                N/A
PINEY POINT      0200          260/  6/  7   N/A

$$



USA.gov is the U.S. government's official web portal to all federal, state and local government web resources and services.